GW4344 Weather Reports


time (UTC)temp
C
wind
direction
speed
KPH
gust
KPH
rain 1hr
cm
rain 24hr
cm
rain mn
cm
humidity
%
barometer
mb
20260506152614 25 54 0.0 321.9 0.00 0.00 0.00 42 124.8
20260506152114 25 56 0.0 321.9 0.00 0.00 0.00 41 124.8
20260506151614 25 56 0.0 321.9 0.00 0.00 0.00 40 124.9
20260506151113 25 56 0.0 321.9 0.00 0.00 0.00 41 124.8
20260506150612 25 56 0.0 321.9 0.00 0.00 0.00 41 124.9
20260506150111 25 59 0.0 321.9 0.00 0.00 0.00 42 125.0
20260506145610 25 66 0.0 321.9 0.00 0.00 0.00 41 125.1
20260506145109 25 74 0.0 321.9 0.00 0.00 0.00 40 125.2
20260506144609 25 76 0.0 321.9 0.00 0.00 0.00 41 125.3
20260506144109 25 78 0.0 321.9 0.00 0.00 0.00 39 125.4
20260506143609 25 75 0.0 321.9 0.00 0.00 0.00 41 125.3
20260506143108 26 72 0.0 321.9 0.00 0.00 0.00 40 125.2
20260506142607 26 73 0.0 321.9 0.00 0.00 0.00 41 125.2
20260506142106 26 69 0.0 321.9 0.00 0.00 0.00 40 125.2
20260506141605 25 66 0.0 321.9 0.00 0.00 0.00 43 125.2
20260506141104 25 66 0.0 321.9 0.00 0.00 0.00 41 125.2
20260506140604 25 66 0.0 321.9 0.00 0.00 0.00 40 125.2
20260506140103 25 66 0.0 321.9 0.00 0.00 0.00 39 125.2
20260506135602 25 67 0.0 321.9 0.00 0.00 0.00 39 125.2
20260506135101 25 68 0.0 321.9 0.00 0.00 0.00 39 125.2
20260506134600 25 73 0.0 321.9 0.00 0.00 0.00 40 125.3
20260506134100 26 78 0.0 321.9 0.00 0.00 0.00 37 125.4
20260506133559 26 76 0.0 321.9 0.00 0.00 0.00 37 125.4
20260506133058 26 76 0.0 321.9 0.00 0.00 0.00 39 125.5
20260506132557 26 76 0.0 321.9 0.00 0.00 0.00 38 125.5
20260506131540 26 81 0.0 321.9 0.00 0.00 0.00 37 125.6
20260506130524 26 89 0.0 321.9 0.00 0.00 0.00 38 125.9
20260506130023 26 88 0.0 321.9 0.00 0.00 0.00 37 125.8
20260506125522 26 88 0.0 321.9 0.00 0.00 0.00 39 125.7
20260506125022 26 86 0.0 321.9 0.00 0.00 0.00 41 125.8
20260506124521 26 85 0.0 321.9 0.00 0.00 0.00 39 125.7
20260506124021 26 87 0.0 321.9 0.00 0.00 0.00 38 125.8
20260506123521 26 88 0.0 321.9 0.00 0.00 0.00 39 125.8
20260506123021 26 87 0.0 321.9 0.00 0.00 0.00 38 125.8
20260506122520 26 81 0.0 321.9 0.00 0.00 0.00 39 125.8
20260506121504 26 66 0.0 321.9 0.00 0.00 0.00 42 125.5
20260506121003 26 49 0.0 321.9 0.00 0.00 0.00 44 125.2
20260506120502 25 37 0.0 321.9 0.00 0.00 0.00 48 125.0
20260506120002 25 37 0.0 321.9 0.00 0.00 0.00 53 125.0
20260506114430 25 33 0.0 321.9 0.00 0.00 0.00 51 124.9
20260506113929 25 20 0.0 321.9 0.00 0.00 0.00 53 124.6
20260506113428 24 11 0.0 321.9 0.00 0.00 0.00 52 124.4
20260506112927 24 6 0.0 321.9 0.00 0.00 0.00 56 124.4
20260506112426 24 2 0.0 321.9 0.00 0.00 0.00 53 124.2
20260506111925 23 2 0.0 321.9 0.00 0.00 0.00 56 124.2
20260506110910 23 347 0.0 321.9 0.00 0.00 0.00 52 123.9
20260506110409 23 340 0.0 321.9 0.00 0.00 0.00 51 123.9
20260506105910 23 333 0.0 321.9 0.00 0.00 0.00 53 123.7
20260506105408 23 328 0.0 321.9 0.00 0.00 0.00 54 123.6
20260506104907 23 324 0.0 321.9 0.00 0.00 0.00 54 123.5
20260506104407 22 328 0.0 321.9 0.00 0.00 0.00 51 123.5
20260506103906 22 339 0.0 321.9 0.00 0.00 0.00 52 123.8
20260506103406 22 350 0.0 321.9 0.00 0.00 0.00 49 124.0
20260506102905 23 357 0.0 321.9 0.00 0.00 0.00 50 124.1
20260506102405 23 356 0.0 321.9 0.00 0.00 0.00 49 124.1
20260506101903 23 354 0.0 321.9 0.00 0.00 0.00 49 124.1
20260506100330 23 7 0.0 321.9 0.00 0.00 0.00 48 124.4
20260506095830 23 11 0.0 321.9 0.00 0.00 0.00 49 124.4
20260506095328 23 12 0.0 321.9 0.00 0.00 0.00 51 124.5
20260506094312 23 20 0.0 321.9 0.00 0.00 0.00 49 124.7
20260506093256 23 25 0.0 321.9 0.00 0.00 0.00 48 124.8
20260506091208 23 28 0.0 321.9 0.00 0.00 0.00 48 125.0
20260506090150 23 11 0.0 321.9 0.00 0.00 0.00 47 124.8
20260506085650 23 4 0.0 321.9 0.00 0.00 0.00 49 124.6
20260506085148 23 353 0.0 321.9 0.00 0.00 0.00 47 124.4
20260506084647 22 344 0.0 321.9 0.00 0.00 0.00 48 124.2
20260506084146 22 330 0.0 321.9 0.00 0.00 0.00 48 124.1
20260506083131 22 307 0.0 321.9 0.00 0.00 0.00 51 123.5
20260506082630 21 303 0.0 321.9 0.00 0.00 0.00 51 123.3
20260506082129 21 304 0.0 321.9 0.00 0.00 0.00 53 123.3
20260506081110 21 305 0.0 321.9 0.00 0.00 0.00 54 123.4
20260506080609 21 303 0.0 321.9 0.00 0.00 0.00 59 123.4
20260506080109 21 307 0.0 321.9 0.00 0.00 0.00 57 123.4
20260506073105 20 266 0.0 321.9 0.00 0.00 0.00 58 122.7
20260506072605 20 263 0.0 321.9 0.00 0.00 0.00 59 122.7
20260506072104 20 261 0.0 321.9 0.00 0.00 0.00 58 122.6
20260506071046 20 250 0.0 321.9 0.00 0.00 0.00 63 122.5
20260506070546 20 240 0.0 321.9 0.00 0.00 0.00 61 122.3
20260506062009 17 130 0.0 321.9 0.00 0.00 0.00 64 119.7
20260506061508 17 118 0.0 321.9 0.00 0.00 0.00 66 119.4
20260506061008 17 107 0.0 321.9 0.00 0.00 0.00 68 119.1
20260506050425 15 23 0.0 321.9 0.00 0.00 0.00 73 116.7
20260506044907 14 13 0.0 321.9 0.00 0.00 0.00 73 116.4
20260506044406 14 12 0.0 321.9 0.00 0.00 0.00 75 116.4
20260506043905 13 10 0.0 321.9 0.00 0.00 0.00 75 116.3
20260506043405 13 4 0.0 321.9 0.00 0.00 0.00 76 116.2
20260506042348 13 350 0.0 321.9 0.00 0.00 0.00 76 115.9
20260506041847 13 345 0.0 321.9 0.00 0.00 0.00 77 115.8
20260506041346 13 342 0.0 321.9 0.00 0.00 0.00 77 115.7
20260506040845 13 341 0.0 321.9 0.00 0.00 0.00 76 115.6
20260506040344 13 338 0.0 321.9 0.00 0.00 0.00 75 115.6
20260506035843 13 333 0.0 321.9 0.00 0.00 0.00 75 115.4
20260506035342 13 327 0.0 321.9 0.00 0.00 0.00 74 115.3
20260506034325 13 321 0.0 321.9 0.00 0.00 0.00 75 115.1
20260506033824 13 322 0.0 321.9 0.00 0.00 0.00 75 115.1
20260506033323 13 319 0.0 321.9 0.00 0.00 0.00 76 115.1
20260506032822 13 318 0.0 321.9 0.00 0.00 0.00 76 115.1
20260506032322 12 316 0.0 321.9 0.00 0.00 0.00 76 115.0
20260506030750 12 317 0.0 321.9 0.00 0.00 0.00 75 115.1
20260506030249 12 319 0.0 321.9 0.00 0.00 0.00 75 115.1
20260506025748 12 319 0.0 321.9 0.00 0.00 0.00 75 115.2
20260506025247 12 320 0.0 321.9 0.00 0.00 0.00 75 115.2
20260506024746 12 321 0.0 321.9 0.00 0.00 0.00 76 115.2
20260506024245 12 321 0.0 321.9 0.00 0.00 0.00 77 115.2
20260506023744 12 321 0.0 321.9 0.00 0.00 0.00 76 115.2
20260506023243 12 323 0.0 321.9 0.00 0.00 0.00 76 115.2
20260506022742 12 323 0.0 321.9 0.00 0.00 0.00 76 115.2
20260506022241 12 324 0.0 321.9 0.00 0.00 0.00 76 115.3
20260506021740 12 324 0.0 321.9 0.00 0.00 0.00 76 115.3
20260506021239 12 324 0.0 321.9 0.00 0.00 0.00 77 115.3
20260506020738 12 323 0.0 321.9 0.00 0.00 0.00 78 115.2
20260506015721 12 325 0.0 321.9 0.00 0.00 0.00 78 115.3
20260506015220 12 327 0.0 321.9 0.00 0.00 0.00 78 115.4
20260506014720 12 329 0.0 321.9 0.00 0.00 0.00 79 115.4
20260506013703 12 332 0.0 321.9 0.00 0.00 0.00 79 115.4
20260506013202 12 335 0.0 321.9 0.00 0.00 0.00 80 115.5
20260506012145 12 344 0.0 321.9 0.00 0.00 0.00 79 115.7
20260506011128 13 354 0.0 321.9 0.00 0.00 0.00 78 115.9
20260506010627 13 359 0.0 321.9 0.00 0.00 0.00 77 116.0
20260506010127 13 6 0.0 321.9 0.00 0.00 0.00 75 116.2
20260506005626 13 13 0.0 321.9 0.00 0.00 0.00 75 116.4
20260506005125 13 24 0.0 321.9 0.00 0.00 0.00 73 116.6
20260506004624 14 32 0.0 321.9 0.00 0.00 0.00 71 116.8
20260506004123 15 37 0.0 321.9 0.00 0.00 0.00 69 116.9
20260506003622 15 42 0.0 321.9 0.00 0.00 0.00 66 117.0
20260506002605 15 47 0.0 321.9 0.00 0.00 0.00 59 117.1
20260506002105 15 50 0.0 321.9 0.00 0.00 0.00 58 117.1
20260506001604 15 52 0.0 321.9 0.00 0.00 0.00 57 117.2
20260506001103 15 54 0.0 321.9 0.00 0.00 0.00 56 117.2
20260506000602 16 55 0.0 321.9 0.00 0.00 0.00 55 117.2
20260506000101 16 55 0.0 321.9 0.00 0.00 0.00 55 117.2
20260505235601 16 55 0.0 321.9 0.00 0.00 0.00 54 117.2
20260505235100 16 54 0.0 321.9 0.00 0.00 0.00 53 117.2
20260505234043 16 54 0.0 321.9 0.00 0.00 0.00 53 117.2
20260505233542 16 54 0.0 321.9 0.00 0.00 0.00 53 117.2
20260505233041 16 54 0.0 321.9 0.00 0.00 0.00 53 117.1
20260505232540 16 54 0.0 321.9 0.00 0.00 0.00 53 117.2
20260505232039 16 55 0.0 321.9 0.00 0.00 0.00 52 117.2
20260505231538 16 56 0.0 321.9 0.00 0.00 0.00 52 117.2
20260505231037 16 59 0.0 321.9 0.00 0.00 0.00 53 117.3
20260505225505 16 65 0.0 321.9 0.00 0.00 0.00 53 117.4
20260505225005 16 68 0.0 321.9 0.00 0.00 0.00 53 117.5
20260505224505 17 70 0.0 321.9 0.00 0.00 0.00 53 117.5
20260505224005 17 71 0.0 321.9 0.00 0.00 0.00 53 117.5
20260505223504 17 71 0.0 321.9 0.00 0.00 0.00 53 117.5
20260505223004 16 73 0.0 321.9 0.00 0.00 0.00 54 117.6
20260505222504 16 73 0.0 321.9 0.00 0.00 0.00 54 117.7
20260505222004 16 72 0.0 321.9 0.00 0.00 0.00 55 117.6
20260505221503 16 74 0.0 321.9 0.00 0.00 0.00 55 117.7
20260505221002 16 76 0.0 321.9 0.00 0.00 0.00 56 117.7
20260505220502 16 78 0.0 321.9 0.00 0.00 0.00 56 117.7
20260505220001 16 79 0.0 321.9 0.00 0.00 0.00 56 117.8
20260505215500 16 80 0.0 321.9 0.00 0.00 0.00 56 117.8
20260505214442 17 82 0.0 321.9 0.00 0.00 0.00 56 117.8
20260505213941 17 83 0.0 321.9 0.00 0.00 0.00 56 117.8
20260505212924 17 85 0.0 321.9 0.00 0.00 0.00 53 117.9
20260505211907 17 87 0.0 321.9 0.00 0.00 0.00 52 118.0
20260505211406 17 88 0.0 321.9 0.00 0.00 0.00 52 118.0
20260505210906 17 87 0.0 321.9 0.00 0.00 0.00 52 118.0
20260505210405 17 89 0.0 321.9 0.00 0.00 0.00 51 118.0
20260505205904 17 89 0.0 321.9 0.00 0.00 0.00 47 118.0
20260505204847 17 89 0.0 321.9 0.00 0.00 0.00 47 118.0
20260505203830 17 90 0.0 321.9 0.00 0.00 0.00 47 118.0
20260505203329 17 91 0.0 321.9 0.00 0.00 0.00 47 118.0
20260505202828 17 92 0.0 321.9 0.00 0.00 0.00 47 118.0
20260505202327 17 94 0.0 321.9 0.00 0.00 0.00 47 118.0
20260505201826 17 93 0.0 321.9 0.00 0.00 0.00 46 118.0
20260505200810 18 87 0.0 321.9 0.00 0.00 0.00 44 117.9
20260505200309 18 84 0.0 321.9 0.00 0.00 0.00 44 117.8
20260505195808 18 82 0.0 321.9 0.00 0.00 0.00 44 117.8
20260505195308 18 81 0.0 321.9 0.00 0.00 0.00 44 117.8
20260505194807 18 79 0.0 321.9 0.00 0.00 0.00 44 117.8
20260505193750 18 78 0.0 321.9 0.00 0.00 0.00 44 117.7
20260505192733 18 77 0.0 321.9 0.00 0.00 0.00 45 117.7
20260505192232 18 78 0.0 321.9 0.00 0.00 0.00 45 117.7
20260505191731 18 80 0.0 321.9 0.00 0.00 0.00 46 117.7
20260505191230 18 81 0.0 321.9 0.00 0.00 0.00 46 117.8
20260505190729 18 80 0.0 321.9 0.00 0.00 0.00 46 117.8
20260505190228 18 79 0.0 321.9 0.00 0.00 0.00 46 117.8
20260505185727 18 79 0.0 321.9 0.00 0.00 0.00 47 117.8
20260505185226 18 82 0.0 321.9 0.00 0.00 0.00 47 117.9
20260505184725 17 88 0.0 321.9 0.00 0.00 0.00 48 118.0
20260505184224 18 97 0.0 321.9 0.00 0.00 0.00 49 118.1
20260505183724 18 108 0.0 321.9 0.00 0.00 0.00 49 118.4
20260505183223 18 115 0.0 321.9 0.00 0.00 0.00 49 118.5
20260505182722 18 118 0.0 321.9 0.00 0.00 0.00 48 118.6
20260505181705 18 127 0.0 321.9 0.00 0.00 0.00 46 118.8
20260505180649 19 135 0.0 321.9 0.00 0.00 0.00 46 118.9
20260505180149 19 138 0.0 321.9 0.00 0.00 0.00 46 119.0
20260505175648 19 140 0.0 321.9 0.00 0.00 0.00 46 119.0
20260505175147 20 143 0.0 321.9 0.00 0.00 0.00 46 119.2
20260505174646 20 145 0.0 321.9 0.00 0.00 0.00 45 119.3
20260505174145 20 150 0.0 321.9 0.00 0.00 0.00 45 119.3
20260505173128 20 168 0.0 321.9 0.00 0.00 0.00 45 119.8
20260505172627 20 181 0.0 321.9 0.00 0.00 0.00 45 120.0
20260505172126 20 197 0.0 321.9 0.00 0.00 0.00 45 120.4
20260505171625 20 216 0.0 321.9 0.00 0.00 0.00 45 120.8
20260505171124 21 235 0.0 321.9 0.00 0.00 0.00 44 121.2
20260505170624 21 255 0.0 321.9 0.00 0.00 0.00 42 121.6
20260505170123 21 277 0.0 321.9 0.00 0.00 0.00 42 122.0
20260505165622 21 293 0.0 321.9 0.00 0.00 0.00 42 122.3
20260505164605 22 314 0.0 321.9 0.00 0.00 0.00 41 122.7
20260505164105 22 320 0.0 321.9 0.00 0.00 0.00 41 122.8
20260505163604 22 328 0.0 321.9 0.00 0.00 0.00 41 123.1
20260505163103 22 340 0.0 321.9 0.00 0.00 0.00 42 123.3
20260505162602 23 352 0.0 321.9 0.00 0.00 0.00 42 123.5
20260505162101 23 6 0.0 321.9 0.00 0.00 0.00 40 123.8
20260505161601 23 26 0.0 321.9 0.00 0.00 0.00 40 124.2
20260505161100 23 42 0.0 321.9 0.00 0.00 0.00 39 124.5
20260505160559 24 55 0.0 321.9 0.00 0.00 0.00 39 124.8